FW0979 Weather Reports


Display with metric or nautical units.
time (UTC)temp
F
wind
direction
speed
MPH
gust
MPH
rain 1hr
in
rain 24hr
in
rain mn
in
humidity
%
barometer
mb
20260509134514 66 360 5.0 9.0 0.00 0.00 0.00 50 1008.3
20260509133013 64 360 4.0 9.0 0.00 0.00 0.00 53 1008.2
20260509131511 63 231 4.0 9.0 0.00 0.00 0.00 55 1007.9
20260509130011 62 214 3.0 9.0 0.00 0.00 0.00 55 1007.8
20260509124508 61 200 4.0 9.0 0.00 0.00 0.00 55 1007.7
20260509123006 60 360 4.0 8.0 0.00 0.00 0.00 55 1007.7
20260509121505 61 209 3.0 8.0 0.00 0.00 0.00 54 1007.8
20260509120004 60 172 2.0 5.0 0.00 0.00 0.00 54 1007.7
20260509114503 60 163 3.0 5.0 0.00 0.00 0.00 55 1007.8
20260509113001 59 123 2.0 6.0 0.00 0.00 0.00 57 1007.4
20260509111501 59 360 1.0 4.0 0.00 0.00 0.00 57 1007.4
20260509110100 58 360 1.0 4.0 0.00 0.00 0.00 56 1007.4
20260509104558 59 360 2.0 5.0 0.00 0.00 0.00 54 1007.5
20260509103052 59 110 3.0 5.0 0.00 0.00 0.00 52 1007.2
20260509101553 61 360 4.0 7.0 0.00 0.00 0.00 49 1006.9
20260509100047 63 360 3.0 5.0 0.00 0.00 0.00 44 1006.7
20260509094546 64 100 2.0 8.0 0.00 0.00 0.00 42 1006.2
20260509093054 63 360 5.0 9.0 0.00 0.00 0.00 45 1006.2
20260509091543 61 360 2.0 6.0 0.00 0.00 0.00 48 1006.1
20260509090039 62 295 2.0 8.0 0.00 0.00 0.00 48 1006.3
20260509084544 62 297 5.0 8.0 0.00 0.00 0.00 46 1006.2
20260509083029 63 271 6.0 9.0 0.00 0.00 0.00 45 1006.2
20260509081535 64 360 5.0 8.0 0.00 0.00 0.00 44 1006.4
20260509080030 64 284 6.0 8.0 0.00 0.00 0.00 44 1006.4
20260509074515 65 290 6.0 9.0 0.00 0.00 0.00 43 1006.7
20260509073009 65 283 4.0 8.0 0.00 0.00 0.00 42 1006.7
20260509071506 65 267 5.0 10.0 0.00 0.00 0.00 42 1006.8
20260509070004 65 269 5.0 7.0 0.00 0.00 0.00 42 1006.9
20260509064617 66 360 4.0 8.0 0.00 0.00 0.00 41 1007.0
20260509063055 67 360 4.0 8.0 0.00 0.00 0.00 39 1006.9
20260509061546 68 243 4.0 8.0 0.00 0.00 0.00 36 1007.0
20260509060044 68 219 2.0 5.0 0.00 0.00 0.00 35 1007.1
20260509054541 69 134 2.0 5.0 0.00 0.00 0.00 30 1007.4
20260509053042 71 132 2.0 4.0 0.00 0.00 0.00 28 1007.6
20260509051541 71 131 1.0 4.0 0.00 0.00 0.00 26 1007.6
20260509050044 72 133 2.0 6.0 0.00 0.00 0.00 26 1007.6
20260509044539 72 186 2.0 5.0 0.00 0.00 0.00 25 1007.8
20260509043040 72 50 1.0 7.0 0.00 0.00 0.00 25 1007.6
20260509041538 70 31 5.0 10.0 0.00 0.00 0.00 26 1007.5
20260509040041 67 59 4.0 14.0 0.00 0.00 0.00 27 1007.2
20260509034542 72 290 3.0 4.0 0.00 0.00 0.00 24 1006.6
20260509033036 73 360 4.0 7.0 0.00 0.00 0.00 21 1006.5
20260509031536 74 290 4.0 6.0 0.00 0.00 0.00 20 1006.2
20260509030035 75 295 3.0 5.0 0.00 0.00 0.00 19 1006.1
20260509024534 77 295 2.0 3.0 0.00 0.00 0.00 17 1005.9
20260509023038 78 297 2.0 4.0 0.00 0.00 0.00 16 1005.7
20260509021534 79 296 3.0 5.0 0.00 0.00 0.00 15 1005.6
20260509020036 81 360 3.0 5.0 0.00 0.00 0.00 14 1005.3
20260509014542 82 360 3.0 5.0 0.00 0.00 0.00 13 1005.2
20260509013032 83 297 3.0 5.0 0.00 0.00 0.00 13 1005.0
20260509011533 84 299 3.0 6.0 0.00 0.00 0.00 13 1004.9
20260509010030 85 299 3.0 5.0 0.00 0.00 0.00 12 1004.6
20260509004529 86 360 3.0 6.0 0.00 0.00 0.00 10 1004.6
20260509003033 86 295 5.0 8.0 0.00 0.00 0.00 10 1004.5
20260509001529 87 317 5.0 8.0 0.00 0.00 0.00 10 1004.5
20260509000028 87 326 5.0 11.0 0.00 0.00 0.00 11 1004.5
20260508234528 88 333 3.0 9.0 0.00 0.00 0.00 10 1004.4
20260508233033 87 323 7.0 13.0 0.00 0.00 0.00 11 1004.5
20260508231527 87 343 4.0 13.0 0.00 0.00 0.00 10 1004.4
20260508230026 87 25 7.0 15.0 0.00 0.00 0.00 10 1004.4
20260508224526 87 340 5.0 12.0 0.00 0.00 0.00 11 1004.3
20260508223026 86 336 3.0 7.0 0.00 0.00 0.00 12 1004.5
20260508221525 87 328 7.0 12.0 0.00 0.00 0.00 12 1004.6
20260508220020 88 359 6.0 12.0 0.00 0.00 0.00 14 1004.8
20260508214519 88 238 2.0 8.0 0.00 0.00 0.00 14 1005.0
20260508213016 87 360 7.0 12.0 0.00 0.00 0.00 14 1005.3
20260508211522 87 316 6.0 15.0 0.00 0.00 0.00 15 1005.3
20260508210013 87 316 6.0 11.0 0.00 0.00 0.00 14 1005.6
20260508204511 87 327 2.0 7.0 0.00 0.00 0.00 15 1006.0
20260508203007 85 360 4.0 11.0 0.00 0.00 0.00 16 1005.9
20260508201505 85 288 4.0 8.0 0.00 0.00 0.00 19 1006.5
20260508200002 85 224 2.0 11.0 0.00 0.00 0.00 20 1006.7
20260508194606 84 224 4.0 12.0 0.00 0.00 0.00 20 1006.8
20260508193105 84 88 2.0 6.0 0.00 0.00 0.00 23 1007.0
20260508191557 84 143 3.0 6.0 0.00 0.00 0.00 23 1007.3
20260508190057 83 161 3.0 7.0 0.00 0.00 0.00 22 1007.5
20260508184554 84 305 2.0 8.0 0.00 0.00 0.00 25 1007.7
20260508183050 83 288 3.0 8.0 0.00 0.00 0.00 29 1008.1
20260508181546 84 233 1.0 9.0 0.00 0.00 0.00 32 1008.2
20260508180044 81 150 2.0 5.0 0.00 0.00 0.00 35 1008.5
20260508174547 80 276 3.0 8.0 0.00 0.00 0.00 38 1008.9
20260508173035 78 360 2.0 6.0 0.00 0.00 0.00 45 1009.0
20260508171532 76 252 2.0 7.0 0.00 0.00 0.00 48 1009.3
20260508170029 75 220 3.0 9.0 0.00 0.00 0.00 54 1009.5
20260508164525 74 179 3.0 10.0 0.00 0.00 0.00 58 1009.7
20260508163020 72 180 4.0 9.0 0.00 0.00 0.00 62 1010.0
20260508161519 71 217 3.0 8.0 0.00 0.00 0.00 66 1010.0
20260508160016 69 302 3.0 6.0 0.00 0.00 0.00 70 1010.2
20260508154510 67 263 2.0 7.0 0.00 0.00 0.00 75 1010.4
20260508153008 65 219 3.0 8.0 0.00 0.00 0.00 80 1010.6
20260508151504 63 226 6.0 6.0 0.00 0.00 0.00 86 1010.6
20260508150100 0 0.0 0.0 0.00 0.00 0.00 1010.6
20260508144556 60 222 4.0 9.0 0.00 0.00 0.00 90 1010.9
20260508143059 60 219 4.0 9.0 0.00 0.00 0.00 90 1010.9
20260508141549 60 200 4.0 9.0 0.00 0.00 0.00 91 1010.9
20260508140054 59 211 2.0 9.0 0.00 0.00 0.00 91 1010.9